Time,TemperatureF,DewpointF,PressureIn,WindDirection,WindDirectionDegrees,WindSpeedMPH,WindSpeedGustMPH,Humidity,HourlyPrecipIn,Conditions,Clouds,dailyrainin,SoftwareType,DateUTC
2013-01-08 14:16:00,49.8,33.0,30.24,South,184,7.0,7.0,53,0.00,,,0.00,weatherlink.com 1.10,2013-01-08 19:16:00,
2013-01-08 14:31:00,50.2,33.0,30.24,SW,232,6.0,9.0,53,0.00,,,0.00,weatherlink.com 1.10,2013-01-08 19:31:00,
2013-01-08 14:46:00,50.3,33.0,30.24,South,188,3.0,8.0,52,0.00,,,0.00,weatherlink.com 1.10,2013-01-08 19:46:00,
2013-01-08 15:01:00,50.9,34.0,30.24,SSW,202,6.0,7.0,52,0.00,,,0.00,weatherlink.com 1.10,2013-01-08 20:01:00,
2013-01-08 15:16:00,50.7,33.0,30.24,SSW,193,3.0,7.0,51,0.00,,,0.00,weatherlink.com 1.10,2013-01-08 20:16:00,
2013-01-08 15:31:00,50.4,33.0,30.24,SW,231,5.0,8.0,52,0.00,,,0.00,weatherlink.com 1.10,2013-01-08 20:31:00,
2013-01-08 15:46:00,50.6,33.0,30.25,South,189,3.0,5.0,52,0.00,,,0.00,weatherlink.com 1.10,2013-01-08 20:46:00,
2013-01-08 16:01:00,49.8,33.0,30.24,SW,218,2.0,6.0,53,0.00,,,0.00,weatherlink.com 1.10,2013-01-08 21:01:00,
2013-01-08 16:16:00,49.5,33.0,30.25,SW,231,3.0,5.0,54,0.00,,,0.00,weatherlink.com 1.10,2013-01-08 21:16:00,
2013-01-08 16:31:00,49.6,33.0,30.25,SW,234,2.0,5.0,54,0.00,,,0.00,weatherlink.com 1.10,2013-01-08 21:31:00,
2013-01-08 16:46:00,50.1,33.0,30.25,SW,234,2.0,5.0,52,0.00,,,0.00,weatherlink.com 1.10,2013-01-08 21:46:00,
2013-01-08 17:01:00,50.0,33.0,30.24,SW,218,0.0,3.0,52,0.00,,,0.00,weatherlink.com 1.10,2013-01-08 22:01:00,
2013-01-08 17:16:00,48.8,33.0,30.23,SW,218,0.0,0.0,54,0.00,,,0.00,weatherlink.com 1.10,2013-01-08 22:16:00,
2013-01-08 17:31:00,45.8,32.0,30.23,SW,218,0.0,0.0,59,0.00,,,0.00,weatherlink.com 1.10,2013-01-08 22:31:00,
2013-01-08 17:46:00,42.8,32.0,30.23,WSW,248,0.0,0.0,65,0.00,,,0.00,weatherlink.com 1.10,2013-01-08 22:46:00,
2013-01-08 18:01:00,40.6,31.0,30.24,WSW,248,0.0,0.0,69,0.00,,,0.00,weatherlink.com 1.10,2013-01-08 23:01:00,
2013-01-08 18:16:00,38.6,31.0,30.25,WSW,248,0.0,0.0,73,0.00,,,0.00,weatherlink.com 1.10,2013-01-08 23:16:00,
2013-01-08 18:31:00,37.0,30.0,30.24,WSW,248,0.0,0.0,76,0.00,,,0.00,weatherlink.com 1.10,2013-01-08 23:31:00,
2013-01-08 18:46:00,35.9,30.0,30.24,WSW,248,0.0,0.0,78,0.00,,,0.00,weatherlink.com 1.10,2013-01-08 23:46:00,
2013-01-08 19:01:00,34.8,30.0,30.24,WSW,248,0.0,0.0,81,0.00,,,0.00,weatherlink.com 1.10,2013-01-09 00:01:00,
2013-01-08 19:16:00,34.1,30.0,30.24,WSW,248,0.0,0.0,83,0.00,,,0.00,weatherlink.com 1.10,2013-01-09 00:16:00,
2013-01-08 19:31:00,33.4,29.0,30.25,WSW,248,0.0,0.0,83,0.00,,,0.00,weatherlink.com 1.10,2013-01-09 00:31:00,
2013-01-08 19:46:00,32.7,29.0,30.25,WSW,248,0.0,0.0,85,0.00,,,0.00,weatherlink.com 1.10,2013-01-09 00:46:00,
2013-01-08 20:01:00,32.3,29.0,30.25,WSW,248,0.0,0.0,86,0.00,,,0.00,weatherlink.com 1.10,2013-01-09 01:01:00,
2013-01-08 20:17:00,31.9,29.0,30.24,WSW,248,0.0,0.0,87,0.00,,,0.00,weatherlink.com 1.10,2013-01-09 01:17:00,
2013-01-08 20:32:00,31.6,29.0,30.24,WSW,248,0.0,0.0,88,0.00,,,0.00,weatherlink.com 1.10,2013-01-09 01:32:00,
2013-01-08 20:47:00,31.3,28.0,30.23,WSW,248,0.0,0.0,88,0.00,,,0.00,weatherlink.com 1.10,2013-01-09 01:47:00,
2013-01-08 21:02:00,31.0,28.0,30.23,WSW,248,0.0,0.0,89,0.00,,,0.00,weatherlink.com 1.10,2013-01-09 02:02:00,
2013-01-08 21:17:00,30.8,28.0,30.23,WSW,248,0.0,0.0,90,0.00,,,0.00,weatherlink.com 1.10,2013-01-09 02:17:00,
2013-01-08 21:32:00,30.8,28.0,30.23,WSW,248,0.0,0.0,90,0.00,,,0.00,weatherlink.com 1.10,2013-01-09 02:32:00,
2013-01-08 21:47:00,31.0,29.0,30.23,WSW,248,0.0,0.0,90,0.00,,,0.00,weatherlink.com 1.10,2013-01-09 02:47:00,
2013-01-08 22:02:00,31.0,29.0,30.23,WSW,248,0.0,0.0,91,0.00,,,0.00,weatherlink.com 1.10,2013-01-09 03:02:00,
2013-01-08 22:17:00,30.8,28.0,30.23,WSW,248,0.0,0.0,90,0.00,,,0.00,weatherlink.com 1.10,2013-01-09 03:17:00,
2013-01-08 22:32:00,30.6,28.0,30.22,WSW,248,0.0,0.0,90,0.00,,,0.00,weatherlink.com 1.10,2013-01-09 03:32:00,
2013-01-08 22:47:00,30.6,28.0,30.23,WSW,248,0.0,0.0,91,0.00,,,0.00,weatherlink.com 1.10,2013-01-09 03:47:00,
2013-01-08 23:02:00,30.4,28.0,30.23,WSW,248,0.0,0.0,91,0.00,,,0.00,weatherlink.com 1.10,2013-01-09 04:02:00,
2013-01-08 23:17:00,30.5,29.0,30.23,WSW,248,0.0,0.0,92,0.00,,,0.00,weatherlink.com 1.10,2013-01-09 04:17:00,
2013-01-08 23:32:00,30.6,29.0,30.23,WSW,248,0.0,0.0,92,0.00,,,0.00,weatherlink.com 1.10,2013-01-09 04:32:00,
2013-01-08 23:47:00,30.8,29.0,30.23,WSW,248,0.0,0.0,92,0.00,,,0.00,weatherlink.com 1.10,2013-01-09 04:47:00,